Date String (YYYY-MM-DD hh:mm:ss) UTC,Instrument flags,absolute air pressure of the measurement (hPa),sample flow rate (lpm),inlet stack bypass flow (lpm),air temperature of the measurement (°C),ambient temperature measured by the external sensor (°C),aerosol sample conditioner tube jacket temperature (°C),OPC LED temperature (°C),internal box temperature (°C),relative humidity of the measurement (%),span deviation,mass concentration of particles derived from Lorenz-Mie calculation of OPC scattering (μg/m³),mass concentration of particles derived from Lorenz-Mie calculation of OPC scattering (μg/m³),mass concentration of particles derived from Lorenz-Mie calculation of OPC scattering (μg/m³)
DateTimeUTC,F1_M11,P_M11,Q1_M11,Q2_M11,T1_M11,T2_M11,T3_M11,T4_M11,T5_M11,U1_M11,ZSPAN_M11,X0_M11,X2_M11,X1_M11
2024-02-01 23:00:00,SystemResetWarning,0822.2,5.01,000.00,025.4,024.8,000.0,033.4,027.3,09.7,0000.0,0009.05,0003.66,0003.25
2024-02-01 23:01:00,SystemResetWarning,0822.2,4.98,000.00,025.5,024.9,000.0,033.5,027.3,09.6,0000.0,0008.95,0003.62,0003.24
2024-02-01 23:02:00,SystemResetWarning,0822.2,5.01,000.00,025.5,025.1,000.0,033.5,027.4,09.6,0000.0,0008.77,0003.61,0003.24
2024-02-01 23:03:00,SystemResetWarning,0822.2,5.01,000.00,025.6,025.2,000.0,033.5,027.5,09.5,0000.0,0008.80,0003.61,0003.24
2024-02-01 23:04:00,SystemResetWarning,0822.2,4.98,000.00,025.7,025.3,000.0,033.6,027.6,09.5,0000.0,0009.70,0003.61,0003.23
2024-02-01 23:05:00,SystemResetWarning,0822.3,4.99,000.00,025.7,025.0,000.0,033.7,027.4,09.5,0000.0,0010.63,0003.67,0003.23
2024-02-01 23:06:00,SystemResetWarning,0822.1,5.01,000.00,025.4,023.0,000.0,033.8,026.4,09.6,0000.0,0010.76,0003.71,0003.23
2024-02-01 23:07:00,SystemResetWarning,0822.1,5.02,000.00,025.1,022.4,000.0,033.8,025.9,09.8,0000.0,0010.77,0003.77,0003.24
2024-02-01 23:08:00,SystemResetWarning,0822.2,5.00,000.00,025.0,022.6,000.0,033.7,026.0,10.0,0000.0,0009.61,0003.78,0003.24
2024-02-01 23:09:00,SystemResetWarning,0822.2,4.99,000.00,025.0,023.0,000.0,033.5,026.3,10.0,0000.0,0009.42,0003.76,0003.25
2024-02-01 23:10:00,SystemResetWarning,0822.2,5.00,000.00,025.0,023.3,000.0,033.5,026.5,09.9,0000.0,0009.89,0003.76,0003.25
2024-02-01 23:11:00,SystemResetWarning,0822.2,5.01,000.00,025.1,023.7,000.0,033.4,026.7,09.9,0000.0,0009.82,0003.73,0003.23
2024-02-01 23:12:00,SystemResetWarning,0822.2,5.01,000.00,025.1,024.0,000.0,033.4,026.8,09.7,0000.0,0009.82,0003.72,0003.22
2024-02-01 23:13:00,SystemResetWarning,0822.2,5.01,000.00,025.2,024.2,000.0,033.4,027.0,09.7,0000.0,0010.00,0003.74,0003.21
2024-02-01 23:14:00,SystemResetWarning,0822.2,5.00,000.00,025.2,024.4,000.0,033.4,027.1,09.7,0000.0,0010.30,0003.76,0003.20
2024-02-01 23:15:00,SystemResetWarning,0822.2,4.99,000.00,025.3,024.6,000.0,033.4,027.2,09.7,0000.0,0009.71,0003.78,0003.19
2024-02-01 23:16:00,SystemResetWarning,0822.2,4.99,000.00,025.4,024.8,000.0,033.5,027.3,09.6,0000.0,0008.92,0003.73,0003.17
2024-02-01 23:17:00,SystemResetWarning,0822.2,5.00,000.00,025.4,024.9,000.0,033.5,027.4,09.7,0000.0,0010.04,0003.73,0003.16
2024-02-01 23:18:00,SystemResetWarning,0822.2,4.99,000.00,025.5,025.1,000.0,033.5,027.4,09.6,0000.0,0010.08,0003.68,0003.14
2024-02-01 23:19:00,SystemResetWarning,0822.2,5.00,000.00,025.6,025.2,000.0,033.6,027.5,09.5,0000.0,0010.97,0003.66,0003.12
2024-02-01 23:20:00,SystemResetWarning,0822.2,5.00,000.00,025.7,025.3,000.0,033.6,027.6,09.5,0000.0,0011.62,0003.65,0003.10
2024-02-01 23:21:00,SystemResetWarning,0822.2,5.00,000.00,025.7,025.4,000.0,033.6,027.6,09.5,0000.0,0011.14,0003.65,0003.10
2024-02-01 23:22:00,SystemResetWarning,0822.1,4.99,000.00,025.6,024.1,000.0,033.7,027.0,09.4,0000.0,0012.35,0003.68,0003.11
2024-02-01 23:23:00,SystemResetWarning,0822.1,5.01,000.00,025.2,022.4,000.0,033.8,026.1,09.6,0000.0,0014.50,0003.69,0003.11
2024-02-01 23:24:00,SystemResetWarning,0822.1,5.01,000.00,025.0,022.4,000.0,033.8,025.9,09.8,0000.0,0014.75,0003.66,0003.11
2024-02-01 23:25:00,SystemResetWarning,0822.1,5.00,000.00,025.0,022.7,000.0,033.6,026.1,09.8,0000.0,0015.15,0003.66,0003.11
2024-02-01 23:26:00,SystemResetWarning,0822.1,4.98,000.00,025.0,023.1,000.0,033.5,026.4,09.8,0000.0,0014.99,0003.65,0003.10
2024-02-01 23:27:00,SystemResetWarning,0822.1,5.00,000.00,025.0,023.5,000.0,033.5,026.6,09.8,0000.0,0015.16,0003.65,0003.10
2024-02-01 23:28:00,SystemResetWarning,0822.2,4.99,000.00,025.1,023.8,000.0,033.4,026.7,09.8,0000.0,0014.96,0003.63,0003.10
2024-02-01 23:29:00,SystemResetWarning,0822.2,5.01,000.00,025.1,024.0,000.0,033.4,026.9,09.8,0000.0,0014.21,0003.65,0003.08
2024-02-01 23:30:00,SystemResetWarning,0822.2,5.01,000.00,025.2,024.3,000.0,033.4,027.0,09.7,0000.0,0013.69,0003.64,0003.08
2024-02-01 23:31:00,SystemResetWarning,0822.2,5.01,000.00,025.3,024.5,000.0,033.4,027.1,09.8,0000.0,0012.94,0003.62,0003.07
2024-02-01 23:32:00,SystemResetWarning,0822.3,4.99,000.00,025.3,024.7,000.0,033.5,027.2,09.7,0000.0,0013.40,0003.63,0003.06
2024-02-01 23:33:00,SystemResetWarning,0822.2,5.00,000.00,025.4,024.8,000.0,033.5,027.3,09.7,0000.0,0013.10,0003.62,0003.03
2024-02-01 23:34:00,SystemResetWarning,0822.2,4.98,000.00,025.5,025.0,000.0,033.5,027.4,09.7,0000.0,0010.82,0003.61,0003.01
2024-02-01 23:35:00,SystemResetWarning,0822.2,5.00,000.00,025.5,025.1,000.0,033.5,027.4,09.6,0000.0,0011.89,0003.62,0002.99
2024-02-01 23:36:00,SystemResetWarning,0822.3,5.01,000.00,025.6,025.2,000.0,033.6,027.5,09.6,0000.0,0011.85,0003.63,0002.99
2024-02-01 23:37:00,SystemResetWarning,0822.2,5.01,000.00,025.7,025.3,000.0,033.6,027.6,09.5,0000.0,0011.95,0003.61,0002.97
2024-02-01 23:38:00,SystemResetWarning,0822.2,4.99,000.00,025.7,025.1,000.0,033.7,027.5,09.4,0000.0,0011.82,0003.62,0002.95
2024-02-01 23:39:00,SystemResetWarning,0822.1,5.00,000.00,025.5,023.1,000.0,033.8,026.5,09.6,0000.0,0011.76,0003.60,0002.93
2024-02-01 23:40:00,SystemResetWarning,0822.1,5.02,000.00,025.1,022.3,000.0,033.8,026.0,09.7,0000.0,0012.72,0003.58,0002.92
2024-02-01 23:41:00,SystemResetWarning,0822.1,4.99,000.00,025.0,022.5,000.0,033.7,026.0,09.8,0000.0,0012.86,0003.57,0002.92
2024-02-01 23:42:00,SystemResetWarning,0822.1,5.00,000.00,025.0,022.9,000.0,033.6,026.2,09.8,0000.0,0013.52,0003.58,0002.91
2024-02-01 23:43:00,SystemResetWarning,0822.1,5.00,000.00,025.0,023.3,000.0,033.5,026.5,09.8,0000.0,0013.23,0003.58,0002.91
2024-02-01 23:44:00,SystemResetWarning,0822.2,4.99,000.00,025.0,023.6,000.0,033.4,026.6,09.8,0000.0,0012.87,0003.55,0002.91
2024-02-01 23:45:00,SystemResetWarning,0822.2,4.99,000.00,025.1,023.9,000.0,033.4,026.8,09.8,0000.0,0013.24,0003.58,0002.92
2024-02-01 23:46:00,SystemResetWarning,0822.2,5.00,000.00,025.1,024.2,000.0,033.4,026.9,09.8,0000.0,0012.15,0003.59,0002.94
2024-02-01 23:47:00,SystemResetWarning,0822.2,5.00,000.00,025.2,024.4,000.0,033.4,027.0,09.8,0000.0,0012.06,0003.59,0002.95
2024-02-01 23:48:00,SystemResetWarning,0822.3,5.00,000.00,025.3,024.6,000.0,033.4,027.1,09.7,0000.0,0013.30,0003.66,0002.98
2024-02-01 23:49:00,SystemResetWarning,0822.3,5.00,000.00,025.3,024.7,000.0,033.5,027.2,09.7,0000.0,0014.79,0003.67,0003.00
2024-02-01 23:50:00,SystemResetWarning,0822.3,5.00,000.00,025.4,024.9,000.0,033.5,027.3,09.7,0000.0,0014.41,0003.67,0003.01
2024-02-01 23:51:00,SystemResetWarning,0822.3,5.00,000.00,025.5,025.0,000.0,033.5,027.4,09.7,0000.0,0013.41,0003.69,0003.04
2024-02-01 23:52:00,SystemResetWarning,0822.3,4.98,000.00,025.5,025.1,000.0,033.5,027.4,09.6,0000.0,0013.81,0003.72,0003.05
2024-02-01 23:53:00,SystemResetWarning,0822.3,4.99,000.00,025.6,025.2,000.0,033.6,027.5,09.6,0000.0,0015.11,0003.75,0003.07
2024-02-01 23:54:00,SystemResetWarning,0822.3,5.01,000.00,025.6,025.3,000.0,033.6,027.5,09.6,0000.0,0015.93,0003.75,0003.08
2024-02-01 23:55:00,SystemResetWarning,0822.3,5.01,000.00,025.7,025.4,000.0,033.7,027.6,09.5,0000.0,0017.94,0003.80,0003.10
2024-02-01 23:56:00,SystemResetWarning,0822.2,4.98,000.00,025.7,024.5,000.0,033.8,027.1,09.5,0000.0,0017.96,0003.82,0003.10
2024-02-01 23:57:00,SystemResetWarning,0822.1,5.00,000.00,025.2,022.4,000.0,033.8,026.0,09.7,0000.0,0017.41,0003.82,0003.10
2024-02-01 23:58:00,SystemResetWarning,0822.1,5.02,000.00,025.0,022.2,000.0,033.8,025.8,09.8,0000.0,0018.07,0003.84,0003.10
2024-02-01 23:59:00,SystemResetWarning,0822.1,5.00,000.00,024.9,022.6,000.0,033.7,026.0,09.9,0000.0,0017.06,0003.81,0003.10
